• In Germany
  • List of Countries
  • For 7 days
  • Water Temperature
  • Satellite Maps
  • Weather Map
  • Weather Widgets
  • user-avatar
    Login

    Hourly Weather Trypolis

    Today, 19 November, Sunday

    Time Temperature Precipitation Wind Pressure Humidity
    00:00 +25°C° 0 mm 1 mps 757 mmHg 33%
    01:00 +24°C° 0 mm 1 mps 757 mmHg 34%
    02:00 +25°C° 0 mm 2 mps 757 mmHg 28%
    03:00 +24°C° 0.1 mm 2 mps 757 mmHg 30%
    04:00 +24°C° 0.1 mm 2 mps 757 mmHg 32%
    05:00 +22°C° 0.1 mm 3 mps 757 mmHg 34%
    06:00 +24°C° 0.1 mm 3 mps 757 mmHg 34%
    07:00 +25°C° 0.1 mm 3 mps 757 mmHg 34%
    08:00 +25°C° 0 mm 4 mps 758 mmHg 35%
    09:00 +26°C° 0 mm 4 mps 758 mmHg 36%
    10:00 +26°C° 0 mm 4 mps 758 mmHg 36%
    11:00 +27°C° 0 mm 4 mps 758 mmHg 37%
    12:00 +27°C° 0 mm 4 mps 758 mmHg 40%
    13:00 +26°C° 0 mm 5 mps 758 mmHg 44%
    14:00 +26°C° 0 mm 5 mps 758 mmHg 45%
    15:00 +25°C° 0.1 mm 4 mps 758 mmHg 52%
    16:00 +23°C° 0.1 mm 4 mps 758 mmHg 60%
    17:00 +22°C° 0.1 mm 4 mps 758 mmHg 67%
    18:00 +22°C° 0 mm 3 mps 758 mmHg 70%
    19:00 +21°C° 0 mm 3 mps 759 mmHg 72%
    20:00 +21°C° 0 mm 2 mps 759 mmHg 75%
    21:00 +20°C° 0 mm 2 mps 759 mmHg 76%
    22:00 +20°C° 0 mm 2 mps 759 mmHg 78%
    23:00 +20°C° 0 mm 2 mps 759 mmHg 79%

    Tomorrow, 20 November, Monday

    Time Temperature Precipitation Wind Pressure Humidity
    00:00 +19°C° 0 mm 2 mps 759 mmHg 80%
    01:00 +19°C° 0 mm 2 mps 759 mmHg 80%
    02:00 +19°C° 0 mm 2 mps 759 mmHg 81%
    03:00 +18°C° 0 mm 2 mps 759 mmHg 81%
    04:00 +18°C° 0 mm 2 mps 759 mmHg 81%
    05:00 +18°C° 0 mm 2 mps 759 mmHg 81%
    06:00 +19°C° 0.1 mm 2 mps 759 mmHg 76%
    07:00 +19°C° 0.1 mm 2 mps 759 mmHg 71%
    08:00 +20°C° 0.1 mm 2 mps 759 mmHg 66%
    09:00 +21°C° 0.1 mm 3 mps 759 mmHg 59%
    10:00 +22°C° 0.1 mm 3 mps 759 mmHg 53%
    11:00 +22°C° 0.1 mm 4 mps 758 mmHg 46%
    12:00 +23°C° 0.4 mm 4 mps 758 mmHg 46%
    13:00 +23°C° 0.4 mm 5 mps 758 mmHg 46%
    14:00 +23°C° 0.4 mm 5 mps 757 mmHg 47%
    15:00 +22°C° 0.6 mm 5 mps 757 mmHg 52%
    16:00 +21°C° 0.6 mm 5 mps 757 mmHg 57%
    17:00 +21°C° 0.6 mm 5 mps 757 mmHg 62%
    18:00 +20°C° 0.2 mm 4 mps 757 mmHg 64%
    19:00 +20°C° 0.2 mm 4 mps 757 mmHg 66%
    20:00 +20°C° 0.2 mm 4 mps 757 mmHg 67%
    21:00 +19°C° 0.3 mm 4 mps 757 mmHg 68%
    22:00 +19°C° 0.3 mm 5 mps 756 mmHg 69%
    23:00 +19°C° 0.3 mm 5 mps 756 mmHg 70%

    Day after tomorrow, 21 November, Tuesday

    Time Temperature Precipitation Wind Pressure Humidity
    00:00 +19°C° 0.5 mm 5 mps 756 mmHg 71%
    01:00 +19°C° 0.5 mm 6 mps 756 mmHg 72%
    02:00 +17°C° 0.5 mm 6 mps 756 mmHg 73%
    03:00 +17°C° 0.5 mm 7 mps 755 mmHg 73%
    04:00 +17°C° 0.5 mm 7 mps 755 mmHg 74%
    05:00 +17°C° 0.5 mm 7 mps 754 mmHg 74%
    06:00 +18°C° 1.1 mm 8 mps 754 mmHg 73%
    07:00 +18°C° 1.1 mm 9 mps 754 mmHg 71%
    08:00 +18°C° 1.1 mm 10 mps 754 mmHg 70%
    09:00 +18°C° 1.4 mm 10 mps 754 mmHg 71%
    10:00 +18°C° 1.4 mm 11 mps 754 mmHg 72%
    11:00 +18°C° 1.4 mm 11 mps 753 mmHg 73%
    12:00 +18°C° 0.3 mm 11 mps 753 mmHg 69%
    13:00 +18°C° 0.3 mm 11 mps 753 mmHg 65%
    14:00 +18°C° 0.3 mm 11 mps 753 mmHg 61%
    15:00 +17°C° 0.4 mm 10 mps 753 mmHg 62%
    16:00 +16°C° 0.4 mm 8 mps 754 mmHg 63%
    17:00 +16°C° 0.4 mm 7 mps 754 mmHg 65%
    18:00 +16°C° 0.1 mm 6 mps 755 mmHg 65%
    19:00 +16°C° 0.1 mm 6 mps 755 mmHg 64%
    20:00 +16°C° 0.1 mm 5 mps 756 mmHg 64%
    21:00 +15°C° 0 mm 5 mps 756 mmHg 65%
    22:00 +15°C° 0 mm 4 mps 756 mmHg 67%
    23:00 +15°C° 0 mm 4 mps 757 mmHg 68%

    22 November, Wednesday

    Time Temperature Precipitation Wind Pressure Humidity
    00:00 +15°C° 0.1 mm 4 mps 757 mmHg 68%
    01:00 +15°C° 0.1 mm 5 mps 757 mmHg 69%
    02:00 +15°C° 0.1 mm 5 mps 757 mmHg 70%
    03:00 +15°C° 0.1 mm 5 mps 757 mmHg 68%
    04:00 +15°C° 0.1 mm 5 mps 757 mmHg 67%
    05:00 +15°C° 0.1 mm 5 mps 757 mmHg 65%
    06:00 +15°C° 0 mm 5 mps 758 mmHg 63%
    07:00 +15°C° 0 mm 4 mps 758 mmHg 60%
    08:00 +15°C° 0 mm 4 mps 758 mmHg 58%
    09:00 +17°C° 0 mm 4 mps 758 mmHg 54%
    10:00 +17°C° 0 mm 4 mps 759 mmHg 51%
    11:00 +18°C° 0 mm 4 mps 759 mmHg 47%
    12:00 +18°C° 0 mm 4 mps 758 mmHg 47%
    13:00 +18°C° 0 mm 4 mps 758 mmHg 46%
    14:00 +18°C° 0 mm 4 mps 758 mmHg 45%
    15:00 +18°C° 0 mm 3 mps 758 mmHg 48%
    16:00 +17°C° 0 mm 3 mps 759 mmHg 50%
    17:00 +16°C° 0 mm 3 mps 759 mmHg 53%
    18:00 +16°C° 0 mm 3 mps 759 mmHg 54%
    19:00 +16°C° 0 mm 2 mps 760 mmHg 55%
    20:00 +15°C° 0 mm 2 mps 760 mmHg 57%
    21:00 +15°C° 0 mm 2 mps 760 mmHg 57%
    22:00 +15°C° 0 mm 2 mps 761 mmHg 58%
    23:00 +15°C° 0 mm 2 mps 761 mmHg 59%

    23 November, Thursday

    Time Temperature Precipitation Wind Pressure Humidity
    00:00 +14°C° 0 mm 2 mps 761 mmHg 59%
    01:00 +14°C° 0 mm 2 mps 760 mmHg 60%
    02:00 +14°C° 0 mm 2 mps 760 mmHg 61%
    03:00 +14°C° 0 mm 2 mps 760 mmHg 61%
    04:00 +14°C° 0 mm 2 mps 760 mmHg 61%
    05:00 +13°C° 0 mm 3 mps 760 mmHg 61%
    06:00 +14°C° 0 mm 3 mps 761 mmHg 57%
    07:00 +14°C° 0 mm 3 mps 761 mmHg 54%
    08:00 +16°C° 0 mm 3 mps 761 mmHg 50%
    09:00 +17°C° 0 mm 3 mps 761 mmHg 48%
    10:00 +18°C° 0 mm 3 mps 761 mmHg 47%
    11:00 +19°C° 0 mm 3 mps 761 mmHg 45%
    12:00 +19°C° 0 mm 3 mps 761 mmHg 46%
    13:00 +19°C° 0 mm 3 mps 760 mmHg 47%
    14:00 +19°C° 0 mm 3 mps 760 mmHg 48%
    15:00 +18°C° 0 mm 3 mps 760 mmHg 51%
    16:00 +18°C° 0 mm 3 mps 760 mmHg 53%
    17:00 +17°C° 0 mm 2 mps 761 mmHg 55%
    18:00 +17°C° 0.1 mm 2 mps 761 mmHg 59%
    19:00 +16°C° 0.1 mm 2 mps 761 mmHg 62%
    20:00 +16°C° 0.1 mm 2 mps 762 mmHg 65%
    21:00 +15°C° 0 mm 2 mps 762 mmHg 66%
    22:00 +15°C° 0 mm 2 mps 762 mmHg 68%
    23:00 +14°C° 0 mm 3 mps 762 mmHg 69%

    24 November, Friday

    Time Temperature Precipitation Wind Pressure Humidity
    00:00 +13°C° 0 mm 3 mps 762 mmHg 69%
    01:00 +13°C° 0 mm 3 mps 762 mmHg 68%
    02:00 +13°C° 0 mm 3 mps 762 mmHg 67%
    03:00 +13°C° 0 mm 3 mps 763 mmHg 66%
    04:00 +12°C° 0 mm 3 mps 763 mmHg 65%
    05:00 +12°C° 0 mm 3 mps 763 mmHg 65%
    06:00 +13°C° 0 mm 3 mps 763 mmHg 61%
    07:00 +13°C° 0 mm 3 mps 764 mmHg 58%
    08:00 +14°C° 0 mm 3 mps 764 mmHg 54%
    09:00 +16°C° 0 mm 3 mps 764 mmHg 49%
    10:00 +17°C° 0 mm 3 mps 764 mmHg 45%
    11:00 +18°C° 0 mm 3 mps 764 mmHg 40%
    12:00 +18°C° 0 mm 3 mps 763 mmHg 39%
    13:00 +18°C° 0 mm 3 mps 763 mmHg 38%
    14:00 +18°C° 0 mm 3 mps 763 mmHg 37%
    15:00 +18°C° 0 mm 3 mps 763 mmHg 39%
    16:00 +17°C° 0 mm 3 mps 763 mmHg 40%
    17:00 +16°C° 0 mm 3 mps 763 mmHg 42%
    18:00 +16°C° 0 mm 2 mps 764 mmHg 42%
    19:00 +15°C° 0 mm 2 mps 764 mmHg 43%
    20:00 +15°C° 0 mm 2 mps 765 mmHg 43%
    21:00 +15°C° 0 mm 2 mps 765 mmHg 44%
    22:00 +14°C° 0 mm 2 mps 765 mmHg 44%
    23:00 +14°C° 0 mm 2 mps 765 mmHg 45%
    Show more